Tracking 19795 objects as of 19-Jul-2019
HD Live streaming from Space Station
objects crossing your sky now

NOAA 16 DEB

Track NOAA 16 DEB now!
10-day predictions


NORAD ID: 42405
Int'l Code: 2000-055SZ
Perigee: 799.1 km
Apogee: 851.1 km
Inclination: 99.0 °
Period: 101.3 minutes
Semi major axis: 7196 km
RCS: Unknown
Launch date: September 21, 2000
Source: United States (US)
Launch site: AIR FORCE WESTERN TEST RANGE (AFWTR)

Note: This is SATELLITE DEBRIS
aabbcc
Your satellite tracking list
Your tracking list is empty




NASA's NSSDC Master Catalog

Two Line Element Set (TLE):
1 42405U 00055SZ  19199.75316404  .00000857  00000-0  40472-3 0  9994
2 42405  98.9930 309.7497 0036094 266.9340  92.7706 14.22184527172395
Source of the keplerian elements: AFSPC